Погода Белый

Погода Белый : погода сейчас, прогноз погоды и архив. Всё, что Вы хотите узнать о погоде Белый!

Поиск расширенной информации на нашем сайте:

Другие новости

Новости СМИ2

Главная страница сайта

Новости сайта

03.07.2017

Напоминаем, что на нашем специализированном сайте Метеоцентр.Азия вы можете получить высокодетализированные автоматические прогнозы погоды по пунктам России, СНГ и мира в авиационном формате (включающие направление и скорость ветра, видимость, явления погоды, количество и форму облачности, нижнюю и верхнюю границу облачности).


Погода Белый - сегодня

Время (UTC), дата Ветер
(°,м/с) 
Видим.   Явления Облачность Т
(°С)
Тd
(°С)
f(%) Тe
(°С)
Pmin
(гПа)
dP
(гПа)
Po
(мм)
O2
(г/м3)
Тmin Tmax R s Состояние
почвы
09 20.01.18 110 (В) 20000 м    9/9 300 м 
[Sc]
-7.1 -9.1 86 -10  1008.6  0.2  735  305           
12 20.01.18 070 (В) 20000 м    9/9 300 м 
[Sc]
-7.2 -9.5 84 -10  1008.3  -0.3  735  305           
15 20.01.18 120 (ЮВ) 10 км  {ливн. осадки}  9/9 300 м 
[Sc]
-7.7 -9.4 88 -9  1008.8  0.4  735  306         
18 20.01.18 090 (В) 10 км  {ливн. осадки}  6/6 300 м 
[Sc]
-9.2 -10.4 91 -9  1008.8  -0.2  735  308    -6.6  0.8     
21 20.01.18 090 (В) 10 км    ясно 
-11.3 -12.4 92 -11  1009.4  0.4  735  310           
00 21.01.18 110 (В) 10 км    9/9 300 м 
[Sc]
-11.1 -12.3 91 -11  1009.2  -0.1  735  310           
03 21.01.18 070 (В) 4000 м  слаб. снег  10/10 300 м 
[Frnb|Ns]
-11 -12.3 90 -11  1009.6  0.3  736  310  -11.7    0.5     
06 21.01.18 130 (ЮВ) 10 км  {снег}  9/9 300 м 
[Sc]
-11.3 -12.5 91 -11  1010.5  0.8  736  311  -11.7    0.9  12  равномерный
сухой снег
100% 
09 21.01.18 340 (С) 4000 м  слаб. снег  10/10 300 м 
[Frnb|Ns]
-9.6 -10.9 90 -9  1010.7  0.4  737  309           
12 21.01.18 360 (С) 4000 м  слаб. снег  10/10 300 м 
[Frnb|Ns]
-7.7 -9.5 87 -7  1011.3  0.8  737  307           
15 21.01.18 310 (СЗ) 10 км  {снег}  9/9 300 м 
[Sc]
-8.7 -10 90 -10  1013.1  1.7  738  308         
18 21.01.18 280 (З) 10 км  {снег}  ясно 
-10 -11.2 91 -10  1013.8  0.5  739  310    -7.5     
21 21.01.18 250 (З) 10 км    9/9 600 м 
[Sc]
-11 -12 92 -13  1014.6  0.7  739  311           
00 22.01.18 290 (З) 10 км    9/9 300 м 
[Sc]
-9.1 -10.1 92 -11  1014.4  739  309           
03 22.01.18 290 (З) 10 км  {ливн. осадки}  ясно 
-9.2 -10.4 91 -11  1015.5  740  310  -11.5    0.3     
06 22.01.18 300 (СЗ) 10 км  {ливн. осадки}  8/0 средняя 
[Ac trans]
-10.2 -11.3 92 -12  1016.6  741  311  -11.5    0.3  13  равномерный
сухой снег
100% 
09 22.01.18 240 (ЮЗ) 20000 м    8/0 верхняя 
[Ci]
-8.6 -9.9 90 -10  1017.4  742  309           
12 22.01.18 270 (З) 20000 м    9/4 600 м средняя 
[Sc|Ac trans]
-5.9 -8.6 81 -8  1018  0.8  742  306           
15 22.01.18 270 (З) 10 км    9/9 600 м 
[Sc]
-6.5 -8.5 86 -8  1019.8  1.7  743  308           
18 22.01.18 240 (ЮЗ) 10 км    9/9 300 м 
[Sc]
-7.1 -8.6 89 -9  1021.3  1.4  744  309    -5.9       
21 22.01.18 250 (З) 10 км    9/9 300 м 
[Sc]
-7.2 -8.5 90 -11  1022.1  0.8  745  309           
00 23.01.18 250 (З) 10 км    9/9 300 м 
[Sc]
-7.5 -9.2 88 -10  1023.1  0.9  746  310           
03 23.01.18 200 (Ю) 10 км    9/9 300 м 
[Sc]
-8.5 -10 89 -10  1023.7  0.5  746  311  -8.5         
06 23.01.18 220 (ЮЗ) 10 км    9/9 300 м 
[Sc]
-9.4 -10.7 90 -12  1024.6  0.8  747  313  -9.4      12  равномерный
сухой снег
100% 
09 23.01.18 270 (З) 4000 м  слаб. снег  10/0 средняя 
[As op]
-7.8 -10.1 84 -11  1025.9  1.4  748  311           
Время (UTC), дата Ветер
(°,м/с) 
Видим.   Явления Облачность Т
(°С)
Тd
(°С)
f(%) Тe
(°С)
Pmin
(гПа)
dP
(гПа)
Po
(мм)
O2
(г/м3)
Тmin Tmax R s Состояние
почвы

Для получения пояснительной информации подведите курсор к названию столбца.

ПОГОДА Белый - архив

Всё, что Вы хотите узнать о погоде Белый - удобно и подробно!

Выберите нужную дату (начиная с 1 января 2015* года) и нажмите кнопку "Найти".
Будут отображены архивные сводки погоды по пункту Белый, начиная с указанной даты.


Отображать данные в формате CSV (для использования в таблицах Excel)


Внимание! Наш архив погоды предназначен исключительно для личного некоммерческого использования в познавательных целях. Если Вам необходимы официальные справки о состоянии погоды (для производственных, юридических, коммерческих и т.п. целей), обращайтесь в органы Росгидромета.

*Примечание: данная дата относится к архиву по метеостанциям СССР (Россия, СНГ, Балтия).
Архив по метеостанциям Зарубежной Европы и Азии (кроме Китая) хранится 10 дней, по другим регионам земного шара (Китай, Африка, Америка, Австралия, Океания) - 1 день.

Белый - район местоположения метеостанции


Название, широта, долгота, высота метеостанции:
Белый 55.9°ш. 32.9°д. 222 м над ур. моря [Российская Федерация]

Дополнительная информация

В oтличие oт бoльшинства пoгoдных сайтoв мы публикуем пoдрoбную метеoинфoрмацию в детальнoм прoфессиoнальнoм фoрмате.

Характеристики температуры и влажнoсти вoздуха измеряются на высoте 2 м в тени вдали oт зданий и деревьев.
Скoрoсть ветра измеряется на высoте 10 м (на урoвне рoста челoвека скoрoсть ветра ниже в 1.5-2 раза). Если метеoстанция нахoдится в гoрoде или в лесу, тo скoрoсть ветра занижена на 2-4 м/с пo сравнению с oткрытым местoм. Скoрoсть ветра над акватoриями крупных рек и oзёр, а также на вершинах хoлмoв на 2-5 м/с выше, чем в oбычных услoвиях.
Атмoсфернoе давление в разных тoчках местнoсти мoжет значительнo oтличаться oт давления на метеoстанции, в зависимoсти oт услoвий рельефа (при пoдъёме на 10 м давление пoнижается примернo на 1 мм рт.ст.).